Lid_Strength_Index
10 11 13 12 12 13 12 13 15 14 14 14 13 14 13 12 12 12 12 12 12 12 11 10 10 9 9 9 9 7 7 7 6 6 6 5 4 3 3 3 3 4 3 3
11 12 12 12 12 13 13 14 15 15 14 13 14 14 13 12 12 12 12 12 12 12 11 11 10 9 9 9 9 8 7 7 6 6 5 4 3 3 3 3 4 4 4 3
12 12 12 12 13 14 14 14 15 15 14 14 14 15 15 13 13 13 12 12 13 12 12 12 11 10 9 9 9 8 7 7 6 6 5 4 4 4 4 4 5 5 4 4
12 12 13 13 14 13 16 14 14 15 15 16 14 17 15 14 15 14 14 13 13 13 12 12 11 10 9 9 8 8 7 7 6 6 5 5 6 6 5 5 5 5 4 4
14 14 14 14 14 13 15 14 14 15 15 16 17 18 15 14 16 15 14 13 13 13 12 12 11 10 9 9 8 8 7 7 7 6 5 5 5 5 5 5 5 5 4 4
14 12 12 13 13 13 13 15 15 15 16 19 16 18 16 16 15 14 13 13 13 13 12 12 11 10 10 8 8 8 8 8 7 6 6 6 6 6 6 6 5 5 5 4
14 14 13 12 14 13 15 16 17 18 20 19 18 19 16 14 13 12 13 14 13 13 13 12 12 11 10 9 9 9 9 8 7 6 6 6 7 6 7 7 6 6 5 5
16 18 14 12 14 15 16 16 16 19 19 19 19 20 17 13 13 12 12 13 13 13 13 12 11 10 10 10 10 9 9 8 8 7 7 7 7 7 7 7 7 7 6 5
15 16 14 14 14 14 16 19 17 19 24 21 18 17 16 15 15 15 15 15 14 14 13 12 11 11 11 11 11 10 9 9 8 8 8 8 8 8 8 8 8 7 7 6
14 18 16 16 14 15 16 16 20 18 21 22 19 20 18 18 17 16 16 15 14 14 13 12 12 12 12 11 11 10 9 10 9 9 8 9 9 9 9 9 9 9 8 7
13 14 18 16 17 17 18 18 18 18 18 19 20 18 14 14 15 15 15 14 14 14 13 12 12 12 12 12 11 11 10 10 9 9 9 9 9 10 10 10 10 10 9 9
14 14 18 17 16 16 15 17 17 17 19 20 20 19 16 14 13 13 14 14 14 13 13 12 12 12 12 12 12 11 11 10 10 10 10 10 10 10 11 12 12 11 11 10
15 15 18 19 18 18 18 17 17 19 17 20 19 17 17 16 15 13 14 14 14 14 13 13 13 13 13 13 13 12 12 11 11 11 11 12 12 12 13 13 13 13 13 12
13 15 15 15 16 16 20 18 17 18 19 18 19 16 18 17 16 14 14 14 15 14 14 13 13 13 13 14 14 13 13 13 12 12 14 15 15 15 15 15 15 15 14 13
14 17 19 19 19 18 18 18 18 20 18 18 17 17 15 15 16 15 15 15 15 14 14 14 13 13 13 14 15 16 16 15 14 16 17 18 17 17 17 17 17 16 15 14
16 17 20 21 20 20 21 19 18 18 18 18 17 18 14 13 15 16 16 15 15 14 14 13 13 13 14 15 16 17 19 18 16 18 19 19 18 19 19 19 19 18 17 15
17 18 18 18 21 21 22 22 19 18 17 17 19 16 14 16 16 16 16 15 15 14 14 14 14 15 15 17 16 20 20 18 19 19 19 19 19 20 20 20 19 18 17 15
16 16 16 18 21 22 16 18 18 18 16 16 16 15 15 16 15 14 14 15 14 14 14 14 15 16 16 18 20 21 20 20 20 19 19 19 21 21 21 21 19 18 16 15
17 15 19 19 20 17 16 18 19 19 18 16 16 15 16 18 17 17 14 13 13 14 15 15 17 18 21 22 22 21 21 21 21 20 20 20 21 21 20 20 19 17 16 15
19 18 16 21 21 21 18 19 17 16 21 16 15 15 15 19 19 14 16 14 15 16 18 20 21 22 23 23 21 21 21 21 21 20 20 20 20 20 20 19 18 17 16 15
22 21 19 18 20 17 15 19 17 21 16 17 15 15 17 18 15 14 16 17 18 20 21 21 23 23 23 23 21 21 21 21 20 20 19 20 20 19 18 18 17 17 16 16
21 21 21 19 21 21 18 19 18 15 18 18 16 15 17 17 18 18 18 19 21 22 21 22 23 24 24 23 20 21 20 21 20 19 19 20 19 18 18 18 17 17 16 16
19 16 19 18 17 17 17 14 16 16 16 18 16 16 16 19 19 18 19 20 20 21 21 21 21 22 22 22 19 18 20 20 20 21 21 20 19 19 18 18 18 17 17 16
19 16 18 17 16 17 17 16 16 17 16 16 16 16 17 18 18 18 18 19 20 20 21 21 21 21 21 20 19 18 19 19 22 21 20 19 19 19 18 17 17 17 17 17
17 18 18 18 18 19 17 17 15 17 18 18 17 16 17 17 18 18 19 19 20 20 20 21 21 20 20 20 20 20 20 21 21 20 20 19 18 19 18 18 18 18 17 16
19 18 19 17 14 15 14 15 15 17 18 18 18 18 17 17 18 18 19 19 20 21 21 22 21 20 20 20 21 22 22 22 21 19 19 19 19 18 18 18 18 16 16 16